[Date Prev][Date Next][Thread Prev][Thread Next] - [Date Index][Thread Index][Author Index]
2 Line ISS Keps 5-12
- Subject: [sarex] 2 Line ISS Keps 5-12
- From: "Dave Larsen PhD" <doc@xxxxxxxxxxx>
- Date: Sun, 12 May 2002 02:58:19 -0700
ISS
1 25544U 98067A 02132.19993324 .00062093 00000-0 76571-3 0 4318
2 25544 51.6368 233.8642 0008516 55.7758 25.3089 15.59547448198418
----
Via the sarex mailing list at AMSAT.ORG courtesy of AMSAT-NA.
To unsubscribe, send "unsubscribe sarex" to Majordomo@amsat.org
AMSAT Home